Location: Newark
(37.3333°N, 6.0167°W)
Time: 20:46:42
(UTC+00:00)

ISS - Visible Passes

Search period start: 14 December 2019 00:00
Search period end: 24 December 2019 00:00
Orbit: 411 x 421 km, 51.6° (Epoch: 15 December)

Date Brightness Start Highest point End Pass type
(mag) Time Alt. Az. Time Alt. Az. Time Alt. Az.
19 Dec -0.6 06:52:32 10° S 06:55:00 19° SE 06:57:26 10° E visible
20 Dec -0.1 06:06:01 10° SE 06:06:39 10° SE 06:07:17 10° ESE visible
21 Dec -3.3 06:51:09 10° SW 06:54:26 63° SE 06:57:43 10° NE visible
22 Dec -2.0 06:02:58 10° SSW 06:05:58 32° SE 06:08:58 10° ENE visible
23 Dec -1.1 05:16:51 17° SE 05:17:33 18° SE 05:19:51 10° E visible
23 Dec -3.3 06:50:53 10° WSW 06:54:02 41° NW 06:57:13 10° NE visible
